Regional Weather Roundup
Issued by NWS

Home | Current Version | Previous Version | Text Only | Print | Product List | Glossary On
Versions: 1 2 3 4 5 6 7 8 9 10 11 12 13 14 15 16 17 18 19 20 21 22 23 24 25 26 27 28 29 30 31 32 33 34 35 36 37 38 39 40 41 42 43 44 45 46 47 48 49 50
000
ASUS43 KDTX 281610
RWRMI
MICHIGAN HOURLY REGIONAL WEATHER ROUNDUP
NATIONAL WEATHER SERVICE DETROIT/PONTIAC MI
1200 PM EDT MON JUL 28 2014

NOTE: "FAIR" INDICATES FEW OR NO CLOUDS BELOW 12,000 FEET WITH NO
SIGNIFICANT WEATHER AND/OR OBSTRUCTION TO VISIBILITY.

MIZ047>049-052>055-059>063-066>070-074>076-081>083-281700-
SOUTHEAST LOWER MICHIGAN

CITY           SKY/WX    TMP DP  RH WIND       PRES   REMARKS
ADRIAN         MOSUNNY   69  54  58 N12       29.93S
ALMA           PTSUNNY   63  53  70 NW14G20   29.96S
ANN ARBOR      MOSUNNY   69  53  56 N10       29.92R
BAD AXE        CLOUDY    58  49  72 N12G20    29.94R
DETROIT CITY   LGT RAIN  69  53  56 N14G22    29.90R
DETROIT        PTSUNNY   67  53  61 NW17G23   29.91R
FLINT          CLOUDY    65  53  65 N15       29.93R
GROSSE ILE     PTSUNNY   66  55  68 NW15G21   29.89R
HILLSDALE      MOSUNNY   68  57  67 NW14G21   29.95R
HOWELL         PTSUNNY   64  54  71 NW9       29.93R

CITY           SKY/WX    TMP DP  RH WIND       PRES   REMARKS
JACKSON        PTSUNNY   67  56  67 VRB7      29.94S
LAMBERTVILLE   MOSUNNY   70  54  56 N10G17    29.92R
LANSING        CLOUDY    62  54  74 N9        29.97R
LAPEER         NOT AVBL
MASON          CLOUDY    64  54  69 N12       29.95R
MONROE         MOSUNNY   66  55  68 N14G20    29.89S
MT. CLEMENS    CLOUDY    63  53  71 NW18      29.89R
PONTIAC        PTSUNNY   64  50  60 N13G28    29.91R
PORT HOPE        N/A     61  51  70 MISG      29.92R
PORT HURON     CLOUDY    61  54  77 N13G21    29.90R
TRI CITIES     PTSUNNY   66  54  65 N13       29.95S
YPSILANTI      MOSUNNY   71  53  52 N16G22    29.92R
$$
MIZ043>046-050>051-056>058-064>065-071>073-077>080-281700-
SOUTHWEST LOWER MICHIGAN

CITY           SKY/WX    TMP DP  RH WIND       PRES   REMARKS
BATTLE CREEK   CLOUDY    65  54  67 W12       29.98R
BENTON HARBOR  CLOUDY    56  51  84 N9G21     30.04R
BIG RAPIDS     CLOUDY    61  52  74 NW10G17   29.99R
COLDWATER      CLOUDY    67  56  69 NW10      29.97R
HOLLAND        CLOUDY    60  53  77 NW9       30.02R
GRAND RAPIDS   CLOUDY    64  56  75 NW12      29.99R
KALAMAZOO      CLOUDY    65  55  70 NW9       29.99S
MARSHALL       CLOUDY    64  55  74 NW7       29.97R
MUSKEGON       PTSUNNY   64  51  62 N12       30.01S
$$
MIZ016>042-281700-
NORTHERN LOWER MICHIGAN

CITY           SKY/WX    TMP DP  RH WIND       PRES   REMARKS
ALPENA         CLOUDY    57  44  62 N15       29.98R
BEAVER ISLAND  SUNNY     60  46  61 N12       30.05S
BELLAIRE       CLOUDY    58  43  56 N10G17    30.02S
CADILLAC       CLOUDY    56  48  75 NW10G20   30.01R
CHARLEVOIX     CLOUDY    59  44  59 N10G20    30.06S
FRANKFORT      PTSUNNY   60  46  58 N12G20    30.06R
GAYLORD        CLOUDY    54  42  64 VRB7      30.01S
GRAYLING       CLOUDY    57  45  63 N15       30.01R
HARBOR SPRINGS CLOUDY    58  43  58 N9        30.03R
HOUGHTON LAKE  PTSUNNY   60  46  59 N12       29.99R
MANISTEE       CLOUDY    57  46  67 N14G20    30.05S
OSCODA         CLOUDY    58  48  67 N15       29.95R
PELLSTON       CLOUDY    60  44  55 NE13      30.03S
TRAVERSE CITY  CLOUDY    58  43  57 N15G22    30.03R
$$
MIZ007>008-015-281700-
EASTERN UPPER MICHIGAN

CITY           SKY/WX    TMP DP  RH WIND       PRES   REMARKS
KINROSS        CLOUDY    59  48  67 NW15      30.01S
MACKINAC ISLAN CLOUDY    58  47  66 N10       30.02S
NEWBERRY       MOSUNNY   60  44  55 N8G18     30.04S
S. S. MARIE    CLOUDY    60  48  64 NW10      30.00S
$$
MIZ004>006-011>014-085-281700-
CENTRAL UPPER MICHIGAN

CITY           SKY/WX    TMP DP  RH WIND       PRES   REMARKS
MANISTIQUE     MOSUNNY   63  45  51 N10       30.05F
ESCANABA       PTSUNNY   63  45  51 N9        30.08S
MENOMINEE      PTSUNNY   61  45  55 NW5       30.09S
SAWYER-GWINN   SUNNY     61  45  55 CALM      30.08F
$$
MIZ001>003-009>011-084-281700-
WESTERN UPPER MICHIGAN

CITY           SKY/WX    TMP DP  RH WIND       PRES   REMARKS
IRON MOUNTAIN  SUNNY     66  52  60 N8        30.08F
COPPER HARBOR    N/A     63  53  70 N14       30.07S
$$

ABBREVIATIONS USED IN REMARKS
   TC - TEMPERATURE IN CELSIUS
  WCI - WIND CHILL INDEX
   HX - HEAT INDEX
  VSB - VISIBILITY



USA.gov is the U.S. government's official web portal to all federal, state and local government web resources and services.